User: anonymous   Login
Location: Unspecified
(0.0000°N, 0.0000°E)
Time: 08:37:40
(UTC+00:00)
Language:

CBERS-4 - Orbit

View from above orbital plane
View from above orbital plane
View from above satellite
View from above satellite

Ground track
Ground track

The orbit data is extracted from the following two-line orbital elements,

1 40336U 14079A   24113.91394829  .00000585  00000-0  21837-3 0  9995
2 40336  98.4030 183.6791 0001766 113.6442 246.4930 14.35503585491290
Epoch (UTC): 22 April 2024 21:56:05
Eccentricity: 0.0001766
inclination: 98.4030°
perigee height: 772 km
apogee height: 774 km
right ascension of ascending node: 183.6791°
argument of perigee: 113.6442°
revolutions per day: 14.35503585
mean anomaly at epoch: 246.4930°
orbit number at epoch: 49129

The dashed part of the orbit path shows where the satellite is in the earth's shadow,  

DLR